Location: Gwatt
(46.7204°N, 7.6223°E)
Time: 17:28:08
(UTC+00:00)

KORONAS-FOTON - Pass Details

Date: 18 September 2020
Orbit: 505 x 532 km, 82.4° (Epoch: 30 October)

Event Time Altitude Azimuth Distance (km) Brightness Sun altitude
Rises 19:21:09 0° 354° (N) 2,688 7.8 -18.6°
Reaches altitude 10° 19:23:20 10° 359° (N) 1,794 6.8 -18.9°
Maximum altitude 19:27:14 57° 78° (ENE) 634 3.9 -19.5°
Enters shadow 19:27:30 55° 98° (E) 645 3.8 -19.6°
